Flag for Pakistan Weather past 2 weeks in Rawalpindi, Pakistan

Now
84 °F

Thunderstorms. Cloudy.


Feels Like: 85 °F
Forecast: 60 / 68 °F
Wind: N/A

Location: Islamabad Airport

Current Time: Mar 28, 2015 at 5:07:39 PM

Latest Report: Mar 28, 2015 at 4:00 PM


Visibility: N/A

Pressure: 29.83 "Hg

Humidity: 48%

Dew point: 63 °F

Location of RawalpindiLocation

Historic Weather in Rawalpindi — Graph

°F

Rawalpindi temperature yesterday

Maximum temperature yesterday: 86 °F (at 3:00 PM)
Minimum temperature yesterday: 63 °F (at 4:00 AM)
Average temperature yesterday: 74 °F

Past Weeks' High & Low Weather Summary

 TemperatureHumidityPressure
High86 °F (Mar 23, 2:00 PM)100% (Mar 16, 9:00 AM)30.21 "Hg (Mar 16, 9:00 AM)
Low52 °F (Mar 18, 5:00 AM)25% (Mar 22, 12:00 PM)29.83 "Hg (Mar 28, 4:00 PM)
Average68 °F61%30.02 "Hg
* Reported Mar 13 4:00 PM — Mar 28 4:00 PM, Rawalpindi, Weather by CustomWeather, © 2015

Note: Actual official high and low records may vary slightly from our data, if they occured in-between our weather recording intervals... More about our weather records

Advertising

Rawalpindi weather history for previous 24 hours

 ConditionsComfort  
Time TempWeatherWind HumidityBarometerVisibility
4:00 PM
Sat, Mar 28
84 °FThunderstorms. Cloudy.N/A48%29.83 "HgN/A
3:00 PM84 °FThunderstorms. Cloudy.N/A48%29.86 "HgN/A
2:00 PM82 °FThunderstorms. Cloudy.N/A51%29.89 "HgN/A
1:00 PM82 °FScattered clouds.7 mph51%29.92 "Hg4 mi
12:00 PM81 °FBroken clouds.7 mph51%29.95 "Hg4 mi
11:00 AM79 °FBroken clouds.7 mph58%29.98 "Hg2 mi
10:00 AM75 °FBroken clouds.5 mph61%29.95 "Hg2 mi
9:00 AM75 °FBroken clouds.5 mph54%29.95 "Hg2 mi
8:00 AM70 °FScattered clouds.5 mph69%29.95 "Hg2 mi
7:00 AM68 °FBroken clouds.9 mph73%29.92 "Hg2 mi
6:00 AM68 °FPartly cloudy.9 mph73%29.92 "Hg2 mi
5:00 AM70 °FPartly cloudy.9 mph73%29.92 "Hg3 mi
4:00 AM70 °FPartly cloudy.9 mph73%29.89 "Hg4 mi
3:00 AM70 °FPassing clouds.7 mph73%29.95 "Hg5 mi
2:00 AM70 °FPassing clouds.5 mph73%29.95 "Hg5 mi
12:00 AM70 °FPassing clouds.9 mph73%29.98 "Hg5 mi
11:00 PM
Fri, Mar 27
70 °FPartly cloudy.12 mph73%29.98 "Hg4 mi
10:00 PM73 °FPartly cloudy.9 mph61%30.01 "Hg4 mi
9:00 PM75 °FPassing clouds.7 mph57%30.01 "Hg4 mi
7:00 PM81 °FPassing clouds.12 mph48%29.98 "Hg4 mi
6:00 PM84 °FScattered clouds.12 mph43%29.95 "Hg4 mi
5:00 PM86 °FScattered clouds.9 mph43%29.95 "Hg4 mi
Weather by CustomWeather, © 2015

See weather overviewHow to use our weather pages